Regional Weather Roundup
Issued by NWS Charleston, WV

Home | Current Version | Previous Version | Text Only | Print | Product List | Glossary Off
Versions: 1 2 3 4 5 6 7 8 9 10 11 12 13 14 15 16 17 18 19 20 21 22 23 24 25 26 27 28 29 30 31 32 33 34 35 36 37 38 39 40 41 42 43 44 45 46 47 48 49 50

054
ASUS41 KRLX 102010
RWRRLX
West Virginia Regional Weather Roundup
National Weather Service Charleston WV
300 PM EST SAT DEC 10 2016

Note: "fair" indicates few or no clouds below 12,000 feet with no
significant weather and/or obstructions to visibility.

WVZ003-102100-
Northern Panhandle of West Virginia

CITY           SKY/WX    TMP DP  RH WIND       PRES   REMARKS
WHEELING       CLOUDY    25  14  63 W12       30.44S
$$

WVZ009-102100-
Northwest West Virginia

CITY           SKY/WX    TMP DP  RH WIND       PRES   REMARKS
PARKERSBURG    PTSUNNY   28  13  53 W8G16     30.52S
$$

WVZ006-102100-
Western West Virginia

CITY           SKY/WX    TMP DP  RH WIND       PRES   REMARKS
HUNTINGTON     SUNNY     32  14  47 SW6       30.49F
$$

WVZ015-102100-
West Central West Virginia

CITY           SKY/WX    TMP DP  RH WIND       PRES   REMARKS
CHARLESTON     MOSUNNY   30  12  47 SW7       30.49S
$$

WVZ022-031-102100-
North Central West Virginia

CITY           SKY/WX    TMP DP  RH WIND       PRES   REMARKS
CLARKSBURG     CLOUDY    25  13  60 W10       30.46F
MORGANTOWN     CLOUDY    26  11  52 W8        30.45S
$$

WVZ025-035-042-045-102100-
Southern West Virginia

CITY           SKY/WX    TMP DP  RH WIND       PRES   REMARKS
BECKLEY        SUNNY     28  11  48 SW7       30.38S
LOGAN          NOT AVBL
BLUEFIELD      SUNNY     27   8  44 W10       30.38R
LEWISBURG      SUNNY     29  10  45 W6        30.36S
$$

WVZ047-102100-
Northern Mountains of West Virginia

CITY           SKY/WX    TMP DP  RH WIND       PRES   REMARKS
ELKINS         CLOUDY    23  11  60 NW7       30.40F
$$

WVZ052-102100-
Eastern Panhandle of West Virginia

CITY           SKY/WX    TMP DP  RH WIND       PRES   REMARKS
MARTINSBURG    PTSUNNY   32  10  40 W13       30.44S
PETERSBURG     SUNNY     31  13  47 W13       30.45S
$$




USA.gov is the U.S. government's official web portal to all federal, state and local government web resources and services.